Evans Head Observation History
Time Wind Speed Temp Pressure Rel. Hum Rain
10/10:00am SSW 5-7 kts 18.2°c 1028.0 hPa 75% 0.0mm
10/09:30am W 5-6 kts 16.3°c 1028.1 hPa 81% 0.0mm
10/09:00am W 6-8 kts 15.0°c 1028.3 hPa 87% 0.0mm
10/08:30am WNW 5-6 kts 14.5°c 1028.0 hPa 88% 0.0mm
10/08:00am W 5-7 kts 14.1°c 1027.7 hPa 87% 0.0mm
10/07:30am W 4-5 kts 13.7°c 1027.8 hPa 91% 0.0mm
10/07:00am WSW 4-5 kts 13.2°c 1027.8 hPa 91% 0.0mm
10/06:30am SSE 3-6 kts 13.3°c 1027.4 hPa 90% 0.0mm
10/06:00am WSW 6-7 kts 13.7°c 1027.2 hPa 89% 0.0mm
10/05:30am NNW 4-6 kts 12.5°c 1026.6 hPa 92% 0.0mm
10/05:00am NNW 5-9 kts 13.2°c 1027.0 hPa 89% 0.0mm
10/04:30am W 7-9 kts 13.8°c 1026.9 hPa 86% 0.0mm
10/04:00am WSW 8-9 kts 13.8°c 1026.8 hPa 85% 0.0mm
10/03:30am WSW 7-9 kts 13.8°c 1026.7 hPa 86% 0.0mm
10/03:00am WSW 7-9 kts 13.7°c 1026.9 hPa 87% 0.0mm
10/02:30am SW 6-8 kts 14.1°c 1026.8 hPa 85% 0.0mm
10/02:00am WSW 8-9 kts 14.1°c 1027.2 hPa 86% 0.0mm
10/01:30am W 7-8 kts 14.1°c 1027.5 hPa 87% 0.0mm
10/01:00am WSW 6-7 kts 14.3°c 1027.6 hPa 86% 0.0mm
10/12:30am W 7-8 kts 14.3°c 1027.9 hPa 85% 0.0mm
10/12:00am W 6-7 kts 14.5°c 1027.8 hPa 85% 0.0mm
Time Wind Speed Temp Pressure Rel. Hum Rain
09/11:30pm WNW 7-9 kts 13.4°c 1028.3 hPa 92% 0.0mm
09/11:00pm NW 4-5 kts 13.1°c 1028.2 hPa 91% 0.0mm
09/10:30pm NNW 5-7 kts 13.5°c 1028.1 hPa 87% 0.0mm
09/10:00pm E 7-10 kts 17.0°c 1028.1 hPa 63% 0.0mm
09/09:30pm E 6-9 kts 17.0°c 1028.6 hPa 63% 0.0mm
09/09:00pm ESE 8-13 kts 16.8°c 1028.2 hPa 65% 0.0mm
09/08:30pm E 6-9 kts 16.5°c 1028.6 hPa 68% 0.0mm
09/08:00pm SE 4-5 kts 16.2°c 1028.4 hPa 76% 0.0mm
09/07:30pm SSE 2-4 kts 15.6°c 1028.2 hPa 81% 0.0mm
09/07:00pm CALM 0 kts 15.8°c 1028.0 hPa 79% 0.0mm
09/06:30pm W 3-5 kts 15.3°c 1028.1 hPa 85% 0.0mm
09/06:00pm NNW 5-6 kts 15.0°c 1028.0 hPa 88% 0.0mm
09/05:30pm NNW 5-7 kts 15.7°c 1027.6 hPa 85% 0.0mm
09/05:00pm NNE 7-11 kts 16.4°c 1027.6 hPa 79% 0.0mm
09/04:30pm ESE 7-10 kts 17.0°c 1027.4 hPa 65% 0.0mm
09/04:00pm SE 8-11 kts 17.4°c 1027.5 hPa 64% 0.0mm
09/03:30pm SE 8-11 kts 17.5°c 1027.5 hPa 65% 0.0mm
09/03:00pm SE 9-12 kts 17.8°c 1027.6 hPa 67% 0.0mm
09/02:30pm SE 7-11 kts 18.3°c 1027.7 hPa 67% 0.0mm
09/02:00pm SE 8-10 kts 19.2°c 1027.7 hPa 65% 0.0mm
09/01:30pm SE 8-11 kts 19.8°c 1027.8 hPa 63% 0.0mm
09/01:00pm SSE 8-10 kts 18.9°c 1028.0 hPa 73% 0.0mm
09/12:30pm S 8-11 kts 18.8°c 1028.4 hPa 75% 0.0mm
09/12:00pm S 7-12 kts 17.9°c 1029.0 hPa 77% 0.0mm
09/11:30am S 8-12 kts 19.1°c 1029.4 hPa 72% 0.0mm
09/11:00am S 7-10 kts 17.9°c 1029.8 hPa 76% 0.0mm
09/10:30am SSW 7-11 kts 18.5°c 1030.0 hPa 76% 0.0mm
09/10:00am SW 6-9 kts 16.8°c 1030.1 hPa 82% 0.0mm
09/09:30am WSW 5-7 kts 14.8°c 1030.2 hPa 89% 0.0mm
09/09:00am WSW 6-8 kts 14.2°c 1030.1 hPa 91% 25.4mm
09/08:30am SW 7-10 kts 14.3°c 1029.7 hPa 90% 25.4mm
09/08:00am WSW 7-12 kts 13.3°c 1029.6 hPa 92% 25.4mm
09/07:30am WSW 8-11 kts 12.7°c 1029.2 hPa 93% 25.4mm
09/07:00am WSW 7-9 kts 12.5°c 1029.0 hPa 93% 25.4mm
09/06:30am WSW 8-11 kts 12.6°c 1028.6 hPa 94% 25.4mm
09/06:00am W 7-8 kts 12.3°c 1028.3 hPa 94% 25.4mm
09/05:30am WSW 7-9 kts 12.4°c 1027.9 hPa 94% 25.4mm
09/05:00am W 6-9 kts 12.2°c 1027.7 hPa 95% 25.2mm
09/04:30am WSW 8-10 kts 12.3°c 1027.3 hPa 95% 25.0mm
09/04:00am WSW 7-9 kts 12.4°c 1027.4 hPa 95% 25.0mm
09/03:30am NNW 3-7 kts 12.4°c 1027.6 hPa 95% 23.8mm
09/03:00am SW 7-10 kts 12.3°c 1027.4 hPa 95% 22.4mm
09/02:30am WSW 7-10 kts 12.3°c 1027.5 hPa 95% 22.4mm
09/02:00am W 7-8 kts 12.3°c 1027.5 hPa 95% 22.4mm
09/01:30am W 7-9 kts 12.5°c 1027.8 hPa 95% 22.4mm
09/01:00am WSW 8-9 kts 12.5°c 1028.1 hPa 95% 22.4mm
09/12:30am W 8-11 kts 12.4°c 1028.2 hPa 95% 22.4mm
09/12:00am WSW 7-9 kts 12.6°c 1028.4 hPa 95% 22.4mm
Time Wind Speed Temp Pressure Rel. Hum Rain
08/11:30pm SW 8-11 kts 12.8°c 1028.5 hPa 95% 22.4mm
08/11:00pm SW 7-11 kts 12.9°c 1028.5 hPa 95% 21.8mm
08/10:30pm WSW 7-10 kts 12.7°c 1028.5 hPa 96% 21.8mm
08/10:00pm WSW 8-11 kts 12.9°c 1028.6 hPa 96% 21.8mm
08/09:30pm W 7-9 kts 13.2°c 1028.6 hPa 96% 21.8mm
08/09:00pm WSW 8-12 kts 13.4°c 1028.7 hPa 96% 21.8mm
08/08:30pm SW 7-11 kts 13.5°c 1028.5 hPa 96% 21.8mm
08/08:00pm SW 8-13 kts 13.5°c 1028.2 hPa 96% 21.8mm
08/07:30pm SW 6-8 kts 13.6°c 1028.4 hPa 96% 21.6mm
08/07:00pm WSW 5-10 kts 13.6°c 1028.3 hPa 96% 20.4mm
08/06:30pm SW 7-10 kts 13.7°c 1027.8 hPa 96% 20.2mm
08/06:00pm SW 10-14 kts 13.8°c 1027.5 hPa 96% 19.4mm
08/05:30pm SW 7-9 kts 14.0°c 1027.2 hPa 96% 19.0mm
08/05:00pm SW 5-6 kts 14.1°c 1027.1 hPa 95% 18.2mm
08/04:30pm ESE 5-7 kts 14.1°c 1027.0 hPa 95% 17.8mm
08/04:00pm SSW 7-12 kts 14.3°c 1026.9 hPa 96% 17.2mm
08/03:30pm WSW 5-7 kts 14.2°c 1026.7 hPa 96% 15.6mm
08/03:00pm SW 5-8 kts 14.1°c 1026.7 hPa 95% 13.8mm
08/02:30pm SW 6-9 kts 14.1°c 1026.7 hPa 96% 11.8mm
08/02:00pm SSW 8-13 kts 14.2°c 1026.7 hPa 96% 10.8mm
08/01:30pm SW 9-12 kts 13.8°c 1026.8 hPa 96% 9.4mm
08/01:00pm SW 9-13 kts 13.9°c 1027.0 hPa 96% 8.6mm
08/12:30pm SW 10-15 kts 13.4°c 1027.3 hPa 96% 8.2mm
08/12:00pm SW 10-15 kts 13.3°c 1027.4 hPa 96% 7.8mm
08/11:30am SW 8-11 kts 12.6°c 1027.8 hPa 95% 6.6mm
08/11:00am SW 9-15 kts 12.3°c 1028.1 hPa 95% 5.0mm
08/10:30am WSW 9-13 kts 11.7°c 1028.3 hPa 95% 2.8mm
08/10:00am WSW 10-15 kts 11.6°c 1028.3 hPa 94% 1.6mm
08/09:30am WSW 11-16 kts 11.0°c 1028.4 hPa 93% 0.8mm
08/09:00am SW 10-16 kts 11.0°c 1028.3 hPa 92% 2.8mm
08/08:30am SW 11-14 kts 11.1°c 1028.1 hPa 91% 0.6mm
08/08:00am SSW 12-18 kts 11.8°c 1027.9 hPa 83% 0.0mm
08/07:30am SW 11-16 kts 12.3°c 1027.4 hPa 71% 0.0mm
08/07:00am WSW 10-14 kts 11.6°c 1027.2 hPa 72% 0.0mm
08/06:30am WSW 9-13 kts 11.7°c 1026.9 hPa 70% 0.0mm
08/06:00am SW 9-13 kts 12.0°c 1026.8 hPa 69% 0.0mm
08/05:30am SW 10-15 kts 12.0°c 1026.4 hPa 68% 0.0mm
08/05:00am SW 10-14 kts 12.1°c 1026.2 hPa 68% 0.0mm
08/04:30am SW 11-15 kts 12.3°c 1026.1 hPa 67% 0.0mm
08/04:00am SW 10-14 kts 12.4°c 1026.2 hPa 68% 0.0mm
08/03:30am SW 11-16 kts 12.1°c 1026.4 hPa 69% 0.0mm
08/03:00am WSW 10-13 kts 11.9°c 1026.5 hPa 71% 0.0mm
08/02:30am SW 11-16 kts 12.5°c 1026.7 hPa 69% 0.0mm
08/02:00am SW 11-15 kts 12.3°c 1026.9 hPa 72% 0.0mm
08/01:30am WSW 11-16 kts 12.4°c 1027.0 hPa 74% 0.0mm
08/01:00am WSW 10-13 kts 12.2°c 1027.2 hPa 75% 0.0mm
08/12:30am WSW 10-13 kts 12.7°c 1027.2 hPa 75% 0.0mm
08/12:00am SW 11-15 kts 13.0°c 1027.1 hPa 73% 0.0mm